Probability
0 0 0 0 0 0 0 0 0 0 0 0 0 0 0 0 0 0 0 0 0 0 0 0 0 0 0 0 0 0 0 0 0 0 0 0 0 0 0 0 0 0 0 0
0 0 0 0 0 0 0 0 0 0 0 0 0 0 0 0 0 0 0 0 0 0 0 0 0 0 0 0 0 0 0 0 0 0 0 0 0 0 0 0 0 0 0 0
0 0 0 0 0 0 0 0 0 0 0 0 0 0 0 0 0 0 0 0 0 0 0 0 0 0 0 0 0 0 0 0 0 0 0 0 0 0 0 0 0 0 0 0
0 0 0 0 0 0 0 0 0 0 0 0 0 0 0 0 0 0 0 0 0 0 0 0 0 0 0 0 0 0 0 0 0 0 0 0 0 0 0 0 0 0 0 0
0 0 0 0 0 0 0 0 0 0 0 0 0 0 0 0 0 0 0 0 0 0 0 0 0 0 0 0 0 0 0 0 0 0 0 0 0 0 0 0 0 0 0 0
0 0 0 0 0 0 0 0 0 0 0 0 0 0 0 0 0 0 0 0 0 0 0 0 0 0 0 0 0 0 0 0 0 0 0 0 0 0 0 0 0 0 0 0
0 0 0 0 0 0 0 0 0 0 0 0 0 0 0 0 0 0 0 0 0 0 0 0 0 0 0 0 0 0 0 0 0 0 0 0 0 0 0 0 0 0 0 0
0 0 0 0 0 0 0 0 0 0 0 0 0 0 0 0 0 0 0 0 0 0 0 0 0 0 0 0 0 0 0 0 0 0 0 0 0 0 0 0 0 0 0 0
0 0 0 0 0 0 0 0 0 0 0 0 0 0 0 0 0 0 0 0 0 0 0 0 0 0 0 0 0 0 0 0 0 0 0 0 0 0 0 0 0 0 0 0
0 0 0 0 0 0 0 0 0 0 0 0 0 0 0 0 0 0 0 0 0 0 0 0 0 0 0 0 0 0 0 0 0 0 0 0 0 0 0 0 0 0 0 0
0 0 0 0 0 0 0 0 0 0 0 0 0 0 0 0 0 0 0 0 0 0 0 0 0 0 0 0 0 0 0 0 0 0 0 0 0 0 0 0 0 0 0 0
0 0 0 0 0 0 0 0 0 0 0 0 0 0 0 0 0 0 0 0 0 0 0 0 0 0 0 0 0 0 0 0 0 0 0 0 0 0 0 0 0 0 0 0
0 0 0 0 0 0 0 0 0 0 0 0 0 0 0 0 0 0 0 0 0 0 0 0 0 0 0 0 0 0 0 0 0 0 0 0 0 0 0 0 0 0 0 0
0 0 0 0 0 0 0 0 0 0 0 0 0 0 0 0 0 0 0 0 0 0 0 0 0 0 0 0 0 0 0 0 0 0 0 0 0 0 0 0 0 0 0 0
0 0 0 0 0 0 0 0 0 0 0 0 0 0 0 0 0 0 0 0 0 0 0 0 0 0 0 0 0 0 0 0 0 0 0 0 0 0 0 0 0 0 0 0
0 0 0 0 0 0 0 0 0 0 0 0 0 0 0 0 0 0 0 0 0 0 0 0 0 0 0 0 0 0 0 0 0 0 0 0 0 0 0 0 0 0 0 0
0 0 0 0 0 0 0 0 0 0 0 0 0 0 0 0 0 0 0 0 0 0 0 0 0 0 0 0 0 0 0 0 0 0 0 0 0 0 0 0 0 0 0 0
0 0 0 0 0 0 0 0 0 0 0 0 0 0 0 0 0 0 0 0 0 0 0 0 0 0 0 0 0 0 0 0 0 0 0 0 0 0 0 0 0 0 0 0
0 0 0 0 0 0 0 0 0 0 0 0 0 0 0 0 0 0 0 0 0 0 0 0 0 0 0 0 0 0 0 0 0 0 0 0 0 0 0 0 0 0 0 0
0 0 0 0 0 0 0 0 0 0 0 0 0 0 0 0 0 0 0 0 0 0 0 0 0 0 0 0 0 0 0 0 0 0 0 0 0 0 0 0 0 0 0 0
0 0 0 0 0 0 0 0 0 0 0 0 0 0 0 0 0 0 0 0 0 0 0 0 0 0 0 0 0 0 0 0 0 0 0 0 0 0 0 0 0 0 0 0
0 0 0 0 0 0 0 0 0 0 0 0 0 0 0 0 0 0 0 0 0 0 0 0 0 0 0 0 0 0 0 0 0 0 0 0 0 0 0 0 0 0 0 0
0 0 0 0 0 0 0 0 0 0 0 0 0 0 0 0 0 0 0 0 0 0 0 0 0 0 0 0 0 0 0 0 0 0 0 0 0 0 0 0 0 0 0 0
0 0 0 0 0 0 0 0 0 0 0 0 0 0 0 0 0 0 0 0 0 0 0 0 0 0 0 0 0 0 0 0 0 0 0 0 0 0 0 0 0 0 0 0
0 0 0 0 0 0 0 0 0 0 0 0 0 0 0 0 0 0 0 0 0 0 0 0 0 0 0 0 0 0 0 0 0 0 0 0 0 0 0 0 0 0 0 0
0 0 0 0 0 0 0 0 0 0 0 0 0 0 0 0 0 0 0 0 0 0 0 0 0 0 0 0 0 0 0 0 0 0 0 0 0 0 0 0 0 0 0 0
0 0 0 0 0 0 0 0 0 0 0 0 0 0 0 0 0 0 0 0 0 0 0 0 0 0 0 0 0 0 0 0 0 0 0 0 0 0 0 0 0 0 0 0
Height
5719 5711 5704 5697 5689 5679 5666 5652 5642 5632 5620 5609 5598 5588 5578 5569 5561 5553 5543 5531 5517 5503 5492 5485 5481 5479 5478 5477 5475 5473 5470 5469 5470 5473 5478 5482 5486 5488 5490 5491 5493 5494 5495 5495
5710 5702 5694 5687 5677 5664 5652 5636 5623 5613 5605 5596 5587 5576 5567 5559 5550 5541 5529 5515 5500 5486 5475 5469 5467 5466 5466 5466 5466 5465 5462 5461 5461 5463 5467 5471 5474 5477 5479 5481 5482 5484 5484 5484
5699 5690 5681 5673 5661 5650 5639 5624 5609 5599 5590 5581 5576 5567 5558 5549 5541 5530 5517 5502 5486 5472 5463 5459 5457 5458 5458 5458 5459 5458 5456 5455 5455 5456 5458 5462 5465 5467 5469 5471 5473 5473 5474 5474
5687 5678 5668 5657 5645 5636 5626 5613 5598 5588 5578 5570 5564 5558 5550 5541 5531 5521 5509 5494 5480 5467 5459 5455 5454 5454 5454 5453 5453 5452 5451 5450 5449 5450 5452 5454 5457 5458 5460 5462 5463 5464 5464 5464
5673 5664 5654 5642 5630 5619 5610 5602 5589 5578 5570 5562 5556 5551 5544 5534 5525 5514 5503 5490 5478 5468 5460 5455 5453 5452 5450 5449 5448 5447 5446 5445 5445 5445 5446 5447 5449 5450 5451 5453 5454 5455 5455 5456
5659 5649 5639 5627 5615 5602 5593 5589 5578 5567 5559 5552 5546 5541 5537 5528 5520 5510 5500 5489 5478 5469 5462 5456 5452 5450 5448 5446 5444 5443 5442 5441 5440 5440 5440 5441 5441 5442 5443 5444 5445 5446 5446 5446
5647 5634 5623 5613 5600 5590 5584 5576 5567 5559 5551 5544 5538 5533 5528 5521 5514 5506 5497 5487 5478 5469 5462 5457 5452 5448 5445 5442 5440 5438 5437 5436 5435 5435 5434 5434 5434 5434 5435 5436 5437 5437 5437 5437
5635 5622 5612 5598 5587 5581 5574 5565 5557 5550 5544 5538 5532 5527 5521 5515 5508 5501 5493 5485 5476 5469 5462 5456 5450 5446 5442 5439 5436 5433 5432 5430 5429 5428 5427 5427 5426 5426 5427 5427 5427 5428 5427 5427
5623 5613 5598 5586 5577 5571 5563 5557 5550 5543 5537 5531 5525 5520 5514 5508 5502 5495 5488 5481 5473 5466 5459 5453 5447 5442 5438 5434 5430 5427 5425 5423 5421 5420 5418 5418 5417 5417 5417 5417 5417 5417 5416 5416
5611 5601 5591 5580 5571 5565 5557 5550 5543 5536 5530 5524 5519 5513 5508 5502 5496 5490 5483 5476 5469 5462 5455 5449 5442 5437 5432 5427 5423 5420 5417 5414 5412 5410 5409 5408 5407 5406 5406 5405 5405 5404 5403 5402
5601 5591 5584 5574 5565 5559 5551 5543 5537 5530 5524 5519 5513 5508 5502 5496 5490 5484 5477 5470 5463 5455 5449 5442 5436 5430 5425 5421 5416 5412 5408 5405 5402 5400 5398 5396 5395 5394 5393 5392 5391 5390 5389 5387
5591 5581 5574 5567 5559 5551 5544 5537 5530 5524 5519 5513 5508 5502 5496 5490 5484 5477 5471 5464 5456 5449 5441 5435 5428 5422 5417 5412 5408 5403 5400 5396 5393 5390 5387 5385 5383 5382 5380 5378 5376 5375 5373 5371
5581 5573 5566 5558 5551 5544 5538 5531 5524 5518 5513 5507 5502 5496 5490 5484 5477 5471 5464 5457 5449 5441 5434 5427 5421 5415 5409 5404 5399 5394 5390 5386 5382 5379 5376 5373 5370 5368 5365 5363 5360 5358 5356 5353
5572 5566 5560 5553 5546 5539 5532 5525 5519 5513 5507 5502 5496 5490 5484 5477 5471 5464 5457 5449 5441 5434 5427 5420 5414 5407 5402 5396 5391 5385 5381 5376 5372 5367 5364 5360 5356 5353 5349 5346 5342 5339 5336 5333
5565 5559 5553 5546 5539 5533 5526 5520 5514 5508 5502 5497 5491 5484 5478 5471 5465 5457 5450 5442 5434 5426 5419 5412 5405 5399 5393 5387 5381 5376 5370 5365 5360 5355 5350 5345 5341 5336 5332 5327 5323 5319 5315 5311
5560 5553 5546 5540 5534 5527 5521 5515 5509 5504 5498 5492 5485 5479 5472 5465 5458 5450 5443 5435 5427 5418 5410 5403 5396 5390 5383 5377 5370 5364 5357 5351 5345 5339 5333 5328 5322 5317 5311 5306 5301 5296 5292 5287
5554 5548 5541 5535 5528 5522 5516 5510 5504 5498 5492 5486 5480 5473 5465 5458 5450 5442 5434 5426 5418 5410 5402 5394 5386 5379 5372 5365 5357 5350 5342 5334 5327 5319 5312 5305 5299 5292 5286 5280 5275 5269 5264 5259
5546 5540 5534 5528 5522 5516 5510 5505 5499 5493 5487 5480 5473 5466 5458 5450 5442 5434 5426 5417 5409 5401 5392 5384 5375 5366 5358 5349 5341 5331 5323 5314 5305 5296 5288 5279 5272 5264 5258 5251 5245 5239 5234 5228
5539 5533 5527 5521 5516 5510 5505 5499 5493 5487 5481 5474 5467 5459 5451 5443 5434 5426 5417 5408 5399 5390 5381 5372 5362 5351 5341 5331 5320 5310 5299 5289 5279 5270 5260 5252 5243 5235 5228 5221 5215 5208 5203 5198
5532 5526 5521 5515 5510 5505 5499 5494 5488 5482 5475 5468 5460 5452 5444 5435 5426 5416 5407 5398 5388 5379 5368 5358 5347 5335 5323 5311 5300 5288 5277 5267 5257 5247 5237 5229 5220 5212 5205 5198 5191 5185 5179 5174
5524 5518 5513 5509 5504 5499 5494 5488 5482 5476 5469 5461 5453 5444 5436 5426 5417 5407 5397 5387 5376 5365 5354 5342 5330 5318 5306 5294 5283 5272 5261 5251 5241 5232 5224 5215 5207 5199 5191 5184 5177 5171 5165 5159
5516 5511 5507 5503 5499 5494 5489 5483 5477 5470 5462 5454 5445 5437 5427 5418 5408 5398 5387 5377 5365 5353 5341 5329 5317 5305 5294 5284 5273 5263 5254 5244 5235 5227 5218 5210 5201 5193 5185 5178 5171 5164 5157 5151
5510 5506 5503 5499 5495 5490 5484 5478 5471 5464 5455 5447 5438 5429 5420 5410 5400 5389 5378 5366 5355 5343 5332 5322 5311 5301 5292 5282 5273 5263 5254 5245 5235 5226 5218 5209 5200 5192 5184 5176 5168 5161 5153 5146
5506 5503 5499 5495 5491 5485 5479 5472 5465 5457 5449 5440 5431 5422 5412 5402 5391 5380 5369 5359 5349 5340 5331 5322 5313 5304 5295 5286 5276 5266 5257 5247 5238 5228 5219 5210 5201 5192 5184 5175 5167 5159 5152 5144
5504 5501 5496 5492 5486 5480 5474 5467 5459 5451 5443 5434 5425 5416 5406 5395 5385 5375 5366 5358 5350 5342 5335 5327 5319 5310 5300 5291 5281 5271 5261 5251 5240 5230 5220 5211 5201 5192 5183 5175 5166 5158 5150 5143
5503 5498 5493 5488 5482 5476 5469 5461 5454 5446 5437 5429 5419 5409 5399 5389 5381 5374 5367 5361 5354 5348 5341 5333 5325 5316 5307 5297 5286 5276 5265 5254 5243 5233 5222 5212 5202 5192 5183 5174 5165 5156 5148 5141
5500 5495 5490 5484 5478 5471 5464 5457 5449 5441 5433 5423 5414 5404 5395 5388 5382 5377 5372 5367 5361 5354 5348 5340 5332 5323 5313 5303 5293 5282 5271 5259 5248 5236 5225 5214 5203 5192 5182 5172 5162 5153 5145 5138
Wind_Speed
50 51 53 56 58 64 69 71 72 73 72 67 64 60 56 52 51 54 59 65 67 65 59 52 46 43 40 36 33 31 31 33 37 42 45 42 41 42 42 39 36 36 39 41
52 54 57 59 65 71 73 73 69 68 63 59 55 52 49 47 50 55 62 65 65 59 50 41 37 34 32 31 28 26 24 25 28 33 38 40 41 39 35 32 32 36 39 39
56 59 62 68 71 74 76 70 64 63 59 56 51 44 43 45 49 55 61 63 60 49 37 30 26 24 24 25 25 23 21 19 20 24 28 31 32 31 28 29 32 34 34 33
60 64 69 71 75 77 75 64 58 54 52 50 43 38 40 43 48 52 57 57 51 40 29 21 17 17 19 22 23 23 21 18 17 18 21 23 23 24 25 27 29 29 28 28
64 68 73 76 78 74 71 60 53 50 47 41 35 34 35 39 44 48 51 50 44 34 25 18 14 15 18 20 22 23 22 20 18 19 20 21 22 24 25 27 27 26 26 25
68 73 76 77 75 68 65 54 50 46 42 38 33 32 33 37 40 43 44 43 38 31 24 18 14 15 17 18 20 21 21 21 21 22 22 23 24 25 26 27 27 26 25 24
72 75 75 73 68 63 54 51 46 41 39 37 35 33 34 35 37 38 39 38 35 30 25 20 18 17 17 18 19 20 22 23 24 25 25 25 26 27 28 29 29 28 27 26
74 74 69 67 59 53 48 43 42 40 38 35 33 32 32 33 35 36 36 36 34 30 27 24 23 22 21 21 21 22 23 25 27 28 29 29 30 30 31 32 32 32 32 31
73 69 65 56 50 47 43 41 39 38 36 33 31 31 31 33 34 35 36 36 35 33 30 28 26 26 26 26 27 27 28 29 30 32 33 33 34 34 35 35 36 37 37 37
69 64 56 49 46 42 40 40 38 36 33 31 31 31 31 33 34 35 37 38 37 36 34 32 30 29 28 28 28 29 30 31 32 33 35 37 38 38 39 39 40 41 42 42
63 58 49 44 43 41 40 38 36 34 32 31 31 31 32 33 34 36 37 39 40 39 36 34 33 32 31 31 30 29 29 30 31 32 34 36 39 42 43 44 45 46 47 48
58 52 46 42 41 41 39 37 35 33 31 31 31 32 33 34 35 36 38 40 41 39 37 35 33 32 31 31 31 31 31 31 31 32 34 36 39 42 45 47 49 51 52 52
51 45 42 41 41 41 39 37 34 32 32 32 32 33 34 35 36 38 40 42 41 40 39 37 35 33 32 31 31 31 31 32 33 33 35 37 39 42 45 48 50 52 54 55
45 41 39 40 41 40 37 35 34 33 33 33 34 34 35 36 37 40 42 43 43 41 39 37 36 34 34 33 32 32 32 32 33 34 36 38 40 43 45 48 51 53 55 56
39 39 40 41 41 39 36 34 33 33 33 34 34 35 36 37 39 41 43 43 43 41 39 38 37 36 36 36 36 36 37 37 38 39 41 42 44 46 48 51 53 55 57 59
36 38 40 42 40 37 34 33 33 33 34 35 35 35 37 39 41 43 44 44 43 41 40 39 38 38 39 40 41 42 43 44 45 47 48 49 51 53 55 57 59 61 63 65
36 38 41 42 40 36 33 32 33 34 34 35 36 37 40 42 44 44 45 44 43 42 41 41 42 42 44 46 48 49 51 53 55 56 58 59 61 63 64 66 68 69 71 72
38 40 42 43 40 36 33 32 33 34 35 37 38 40 42 44 45 45 45 45 45 45 45 45 47 49 52 54 56 58 60 61 63 64 66 67 68 70 71 72 73 75 76 77
39 41 42 42 38 34 32 32 34 35 37 39 41 42 44 45 46 46 46 46 47 48 50 52 54 57 60 62 63 64 65 65 65 65 65 65 66 66 66 66 67 67 68 68
41 41 41 38 34 32 31 33 35 37 39 41 42 44 45 46 47 47 48 49 51 53 56 59 61 62 63 63 62 61 60 58 57 55 54 53 52 51 50 50 50 50 50 50
41 39 37 33 31 30 31 34 36 39 41 43 44 45 46 47 48 49 51 53 56 59 61 62 61 59 57 55 52 50 48 45 43 41 40 38 37 36 35 34 34 34 34 34
37 34 30 29 28 30 32 35 38 41 43 44 45 46 47 48 50 52 54 57 59 59 57 54 51 48 46 44 42 40 38 37 35 34 33 32 31 31 30 30 30 29 29 28
30 27 25 26 28 31 34 37 40 43 44 45 46 46 47 49 52 55 56 56 53 48 44 41 40 39 39 38 38 38 37 36 35 35 34 34 34 34 35 35 35 34 32 30
23 23 24 26 29 33 36 39 42 43 44 44 45 46 49 52 54 55 51 44 38 36 35 36 37 38 39 39 39 39 39 38 38 38 37 38 38 39 39 40 40 39 38 36
21 23 25 28 32 35 38 40 41 42 42 43 45 48 51 53 50 43 35 32 32 34 36 38 39 40 41 42 43 43 43 43 42 42 41 41 41 42 42 42 42 42 41 39
23 25 28 31 34 37 38 39 40 41 42 44 46 49 50 44 34 28 28 31 34 36 38 39 41 42 44 45 46 46 47 47 47 46 45 44 44 43 42 43 42 41 40 38
26 28 31 33 35 36 37 38 39 40 42 45 48 47 38 27 24 27 30 33 35 37 38 40 43 45 47 48 50 51 51 51 51 50 49 48 47 45 43 42 41 39 37 35
Wind_Direction
315 314 314 314 314 312 312 312 312 313 313 315 314 313 313 314 316 317 317 317 315 311 306 299 292 287 283 282 284 287 280 268 257 250 251 252 255 258 262 262 258 256 258 262
315 313 312 313 312 312 314 316 316 315 315 314 314 313 315 317 318 320 321 322 321 317 310 300 291 285 282 279 281 286 281 267 254 248 249 253 254 256 255 250 249 252 258 261
314 314 314 314 315 315 316 318 317 316 317 315 315 315 317 320 322 325 327 329 329 326 319 309 296 287 284 280 279 284 282 268 252 244 245 248 250 249 246 247 252 256 259 260
315 315 316 317 315 316 317 319 317 316 314 313 315 317 321 322 326 330 333 335 337 337 332 323 309 294 289 286 282 285 283 272 257 247 244 244 246 248 249 251 252 252 255 257
315 316 315 315 317 319 318 321 319 316 314 312 312 316 321 324 328 332 335 339 342 343 342 335 318 301 295 292 290 288 285 275 262 252 247 248 251 254 253 252 251 253 256 259
317 317 317 318 319 320 319 321 320 317 315 315 316 318 323 326 328 332 336 340 344 345 342 337 322 308 302 297 295 292 286 276 266 260 256 256 257 257 255 253 254 255 258 261
317 318 317 320 320 320 321 324 321 318 317 317 318 322 324 327 329 332 335 339 341 341 338 332 322 312 304 299 297 293 287 280 271 264 262 261 261 260 258 256 255 256 259 261
318 318 320 321 320 322 323 321 318 317 315 315 318 322 325 328 330 333 335 336 337 336 332 326 318 309 302 296 294 291 286 281 275 269 264 262 262 262 261 259 257 258 260 263
319 319 320 321 322 324 322 321 318 315 313 313 319 324 326 328 330 333 335 335 334 331 328 323 317 310 302 297 293 289 285 281 277 273 267 263 262 262 261 260 259 260 263 265
319 320 322 322 323 324 322 321 318 315 314 316 321 324 325 326 327 329 332 333 331 329 324 320 316 312 308 303 298 292 288 284 279 274 269 265 263 262 262 262 262 264 266 268
319 320 321 322 323 325 325 323 321 320 319 319 321 324 324 325 326 328 330 330 330 328 324 320 315 310 307 304 302 299 295 290 284 278 273 268 265 263 263 264 265 267 269 271
321 322 324 325 326 328 327 325 324 323 321 321 322 324 325 326 327 328 329 329 328 327 325 322 319 315 311 306 302 298 294 291 288 283 277 273 269 268 266 267 268 269 271 272
321 323 326 328 328 328 327 325 325 324 323 323 323 324 325 327 327 327 327 327 327 326 324 322 320 318 315 312 308 304 299 294 289 285 281 277 274 273 272 271 271 271 272 273
322 324 327 328 328 327 326 325 325 325 324 323 323 324 325 326 326 326 326 327 325 323 321 319 318 316 315 314 311 308 304 300 295 291 286 282 279 277 275 274 274 273 273 272
321 324 327 328 328 326 326 325 325 324 324 323 323 324 325 325 325 325 325 325 323 321 319 317 316 315 314 313 310 308 305 301 298 294 291 288 285 282 280 278 277 276 275 275
319 322 326 328 326 324 323 324 324 323 323 323 323 323 323 323 323 323 323 323 322 322 320 319 317 315 313 311 309 307 305 302 299 296 293 290 287 284 282 280 279 278 277 276
318 321 324 326 324 322 321 323 324 324 324 323 323 322 323 323 322 322 322 323 323 322 320 318 316 314 313 311 309 307 304 302 299 297 294 291 289 287 285 283 281 279 278 277
317 320 322 324 322 320 320 323 325 325 325 323 323 323 323 322 322 323 323 323 322 321 320 318 316 315 313 311 308 306 304 301 299 297 295 293 290 288 286 285 283 281 280 279
316 317 320 321 320 319 319 322 324 324 324 324 324 324 323 323 323 323 323 322 322 321 320 319 317 315 313 311 309 308 306 304 303 301 299 297 295 293 291 289 287 286 284 283
315 316 318 319 318 318 319 321 323 324 324 324 324 324 324 324 324 324 324 323 323 322 320 319 318 317 316 315 314 313 312 310 309 308 306 305 303 302 300 298 296 294 292 290
315 315 316 317 317 317 319 321 322 324 324 325 325 325 325 325 326 326 326 325 324 323 323 322 322 322 322 323 323 324 324 324 324 324 324 323 322 321 320 319 316 314 310 306
316 315 315 316 316 318 320 322 323 324 325 325 326 326 326 327 328 328 327 327 327 327 328 330 332 335 338 341 343 345 346 347 348 348 349 350 350 350 350 348 345 340 335 329
318 317 316 317 318 320 322 323 323 324 326 327 327 328 329 330 330 330 330 331 333 338 343 349 355 359 2 4 4 5 5 5 6 6 7 8 9 9 8 6 4 0 355 349
323 321 320 320 321 322 323 324 325 327 328 329 330 331 332 332 332 334 336 343 353 3 12 17 19 20 19 18 17 16 16 15 14 14 14 14 13 12 11 9 7 4 1 358
329 326 324 323 323 324 326 327 329 330 331 332 333 333 334 335 338 345 358 14 25 31 34 34 32 30 28 26 25 23 21 19 18 16 15 14 12 9 7 3 1 359 357 356
328 326 325 325 327 328 329 330 332 333 334 335 335 336 338 343 356 18 34 41 45 44 41 38 36 34 33 31 29 27 25 22 20 17 14 12 9 5 1 357 353 350 349 348
326 326 327 329 330 331 332 334 335 336 337 337 338 341 349 9 36 49 54 54 50 47 44 42 40 38 36 35 33 31 29 27 24 21 18 14 9 3 358 352 347 342 340 340